Date,TemperatureHighF,TemperatureAvgF,TemperatureLowF,DewpointHighF,DewpointAvgF,DewpointLowF,HumidityHigh,HumidityAvg,HumidityLow,PressureMaxIn,PressureMinIn,WindSpeedMaxMPH,WindSpeedAvgMPH,GustSpeedMaxMPH,PrecipitationSumIn
2013-5-1,72.3,54.6,34.9,37.0,34.8,32.0,94,52,23,30.54,30.45,5,1,7,0.00
2013-5-2,80.4,64.6,48.7,39.0,34.6,30.0,53,34,20,30.48,30.27,6,2,10,0.00
2013-5-3,79.5,65.1,47.5,45.0,37.1,32.0,66,37,22,30.33,30.16,7,2,12,0.00
2013-5-4,83.3,69.1,51.8,46.0,36.8,25.0,73,36,14,30.16,29.92,5,1,12,0.00
2013-5-5,85.6,72.0,55.8,46.0,38.3,32.0,61,32,16,29.92,29.71,7,1,11,0.00
2013-5-6,83.8,67.9,51.6,54.0,48.1,41.0,83,52,22,29.92,29.77,4,0,7,0.00
2013-5-7,77.4,64.9,51.3,54.0,49.2,46.0,89,59,35,30.07,29.89,4,0,7,0.00
2013-5-8,70.3,60.0,51.1,55.0,50.5,48.0,90,72,49,30.16,30.07,4,0,6,0.00
2013-5-9,79.2,64.0,51.6,55.0,51.2,45.0,95,67,33,30.22,30.10,5,1,8,0.00
2013-5-10,84.4,69.4,53.1,59.0,53.5,45.0,95,61,27,30.22,30.10,4,0,7,0.00
2013-5-11,85.1,71.9,58.8,59.0,54.3,50.0,81,56,32,30.22,30.01,4,0,5,0.00
2013-5-12,72.5,65.4,59.7,61.0,58.5,55.0,97,79,58,30.16,30.07,4,0,6,0.00
2013-5-13,68.9,61.0,51.3,59.0,52.2,41.0,97,75,43,30.24,30.07,7,1,12,0.00
2013-5-14,67.8,57.6,44.2,52.0,41.3,34.0,96,59,28,30.27,30.13,6,0,7,0.00
2013-5-15,61.3,55.5,49.8,54.0,48.6,45.0,87,77,66,30.16,30.07,4,0,5,0.00
2013-5-16,68.4,59.1,53.2,57.0,54.0,50.0,95,84,53,30.07,29.95,4,0,7,0.00
2013-5-17,66.6,56.8,48.9,54.0,49.4,41.0,97,78,44,30.13,30.01,4,0,6,0.00
2013-5-18,60.6,55.3,51.3,55.0,53.2,48.0,97,91,68,30.30,30.13,3,0,5,0.00
2013-5-19,67.3,58.8,52.5,55.0,48.6,39.0,97,71,40,30.42,30.30,4,0,7,0.00
2013-5-20,72.9,59.6,46.2,50.0,45.7,41.0,96,64,32,30.39,29.92,4,0,7,0.00
2013-5-21,63.1,51.9,45.0,50.0,46.3,43.0,96,83,53,30.01,29.86,5,0,10,0.00
2013-5-22,50.9,46.7,43.7,50.0,45.5,41.0,97,94,90,30.04,29.95,4,0,6,0.00
2013-5-23,58.3,50.3,46.2,52.0,47.8,45.0,97,91,63,30.07,29.98,5,0,7,0.00
2013-5-24,61.5,53.7,48.4,54.0,49.6,46.0,97,86,59,30.13,30.01,4,0,7,0.00
2013-5-25,68.7,59.2,50.7,55.0,48.6,39.0,97,71,36,30.10,29.95,5,0,7,0.00
2013-5-26,66.0,59.7,54.9,59.0,51.7,46.0,97,76,52,30.07,29.95,5,0,8,0.00
2013-5-27,67.5,57.1,52.2,61.0,54.1,48.0,97,89,68,30.04,29.77,4,0,6,0.00
2013-5-28,66.2,58.6,52.5,55.0,49.6,43.0,97,74,44,29.98,29.80,5,1,9,0.00
2013-5-29,66.0,57.7,51.1,57.0,50.7,43.0,97,79,48,30.10,29.68,5,1,10,0.00
2013-5-30,63.7,56.9,50.0,54.0,47.8,43.0,92,73,47,30.27,30.10,5,0,7,0.00
2013-5-31,69.1,61.0,50.4,54.0,45.7,39.0,93,60,35,30.36,30.24,5,1,7,0.00